Location: Wien
(48.2082°N, 16.3738°E)
Time: 09:11:35
(UTC+02:00)

Transit 4A - Pass Details

Date: 02 March 2024
Orbit: 871 x 971 km, 66.8° (Epoch: 24 April)

Event Time Altitude Azimuth Distance (km) Brightness Sun altitude
Exits shadow 04:10:07 - 326° (NW) 2,679 10.1 -24.4°
Reaches altitude 10° 04:10:44 10° 331° (NNW) 2,582 10.1 -24.3°
Maximum altitude 04:13:13 13° 356° (N) 2,386 10.2 -23.9°
Drops below altitude 10° 04:15:41 10° 21° (NNE) 2,558 10.7 -23.5°
Sets 04:19:54 0° 50° (NE) 3,482 12.0 -22.9°
